When you browse on this site, cookies collect data to enhance your experience and personalize the content and advertising you see.
Visit our Privacy Policy to learn more. By continuing to use the site, you agree to this use of cookies and data.
  • en Suisse
  • Liste des pays
  • À 7 jours
  • Température de l'eau
  • Carte météo
  • Widgets météo
  • user-avatar
    Se connecter

    Météo par heure à Tykhe

    Ce jour, 19 Février, Mercredi

    Heure Température Précipitation Vent Pression Humidité
    00:00 0°C° 0 mm 3 m/s 749 mmHg 95%
    01:00 0°C° 0 mm 3 m/s 750 mmHg 95%
    02:00 +1°C° 0 mm 2 m/s 750 mmHg 95%
    03:00 +1°C° 0 mm 2 m/s 750 mmHg 95%
    04:00 +1°C° 0 mm 2 m/s 749 mmHg 95%
    05:00 +1°C° 0 mm 2 m/s 749 mmHg 94%
    06:00 +1°C° 0 mm 2 m/s 750 mmHg 95%
    07:00 +1°C° 0 mm 2 m/s 750 mmHg 95%
    08:00 +1°C° 0 mm 2 m/s 750 mmHg 95%
    09:00 +1°C° 0 mm 2 m/s 750 mmHg 96%
    10:00 +2°C° 0 mm 2 m/s 750 mmHg 98%
    11:00 +2°C° 0 mm 2 m/s 750 mmHg 99%
    12:00 +3°C° 0 mm 2 m/s 750 mmHg 99%
    13:00 +4°C° 0 mm 1 m/s 750 mmHg 99%
    14:00 +4°C° 0 mm 1 m/s 750 mmHg 99%
    15:00 +3°C° 0 mm 1 m/s 750 mmHg 98%
    16:00 +3°C° 0 mm 1 m/s 750 mmHg 97%
    17:00 +2°C° 0 mm 1 m/s 751 mmHg 96%
    18:00 +2°C° 0 mm 1 m/s 751 mmHg 96%
    19:00 +2°C° 0 mm 1 m/s 751 mmHg 96%
    20:00 +2°C° 0 mm 1 m/s 751 mmHg 96%
    21:00 +2°C° 0 mm 1 m/s 751 mmHg 95%
    22:00 +2°C° 0 mm 1 m/s 751 mmHg 95%
    23:00 +2°C° 0 mm 1 m/s 752 mmHg 94%

    Demain, 20 Février, Jeudi

    Heure Température Précipitation Vent Pression Humidité
    00:00 +2°C° 0 mm 1 m/s 752 mmHg 92%
    01:00 +2°C° 0 mm 1 m/s 752 mmHg 91%
    02:00 +1°C° 0 mm 1 m/s 752 mmHg 90%
    03:00 +1°C° 0 mm 1 m/s 752 mmHg 89%
    04:00 +1°C° 0 mm 1 m/s 752 mmHg 89%
    05:00 +1°C° 0 mm 1 m/s 752 mmHg 89%
    06:00 +1°C° 0 mm 1 m/s 752 mmHg 89%
    07:00 +1°C° 0 mm 1 m/s 753 mmHg 88%
    08:00 0°C° 0 mm 0 m/s 753 mmHg 88%
    09:00 +1°C° 0 mm 0 m/s 753 mmHg 87%
    10:00 +1°C° 0 mm 0 m/s 753 mmHg 86%
    11:00 +2°C° 0 mm 0 m/s 753 mmHg 85%
    12:00 +2°C° 0 mm 0 m/s 753 mmHg 85%
    13:00 +2°C° 0 mm 0 m/s 753 mmHg 85%
    14:00 +2°C° 0 mm 0 m/s 753 mmHg 84%
    15:00 +2°C° 0 mm 0 m/s 753 mmHg 84%
    16:00 +1°C° 0 mm 0 m/s 753 mmHg 83%
    17:00 +2°C° 0 mm 1 m/s 753 mmHg 83%
    18:00 +2°C° 0 mm 1 m/s 754 mmHg 82%
    19:00 +2°C° 0 mm 1 m/s 754 mmHg 82%
    20:00 +2°C° 0 mm 1 m/s 754 mmHg 81%
    21:00 +2°C° 0 mm 1 m/s 755 mmHg 81%
    22:00 +1°C° 0 mm 1 m/s 755 mmHg 81%
    23:00 +1°C° 0 mm 1 m/s 755 mmHg 81%

    Après-demain, 21 Février, Vendredi

    Heure Température Précipitation Vent Pression Humidité
    00:00 +1°C° 0 mm 1 m/s 755 mmHg 81%
    01:00 +1°C° 0 mm 1 m/s 755 mmHg 81%
    02:00 +1°C° 0 mm 1 m/s 755 mmHg 81%
    03:00 +1°C° 0 mm 1 m/s 755 mmHg 82%
    04:00 -2°C° 0 mm 2 m/s 755 mmHg 83%
    05:00 -2°C° 0 mm 2 m/s 755 mmHg 84%
    06:00 -2°C° 0 mm 2 m/s 755 mmHg 84%
    07:00 -2°C° 0 mm 2 m/s 755 mmHg 84%
    08:00 -1°C° 0 mm 2 m/s 756 mmHg 85%
    15:00 0°C° 0 mm 3 m/s 755 mmHg 80%
    16:00 +1°C° 0 mm 2 m/s 755 mmHg 83%
    17:00 -1°C° 0 mm 2 m/s 754 mmHg 87%
    18:00 -1°C° 0 mm 2 m/s 755 mmHg 88%
    19:00 -1°C° 0 mm 2 m/s 755 mmHg 89%
    20:00 -2°C° 0 mm 2 m/s 755 mmHg 89%
    21:00 -2°C° 0 mm 2 m/s 755 mmHg 89%
    22:00 -2°C° 0 mm 2 m/s 755 mmHg 88%
    23:00 -2°C° 0 mm 2 m/s 755 mmHg 88%

    22 Février, Samedi

    Heure Température Précipitation Vent Pression Humidité
    00:00 -2°C° 0 mm 2 m/s 755 mmHg 87%
    01:00 -2°C° 0 mm 2 m/s 755 mmHg 87%
    02:00 -1°C° 0 mm 2 m/s 755 mmHg 86%
    03:00 -2°C° 0 mm 2 m/s 755 mmHg 87%
    04:00 -2°C° 0 mm 2 m/s 755 mmHg 89%
    05:00 -2°C° 0 mm 2 m/s 755 mmHg 90%
    06:00 -2°C° 0 mm 2 m/s 755 mmHg 90%
    07:00 -2°C° 0 mm 3 m/s 756 mmHg 91%
    08:00 -2°C° 0 mm 3 m/s 756 mmHg 91%
    09:00 -1°C° 0 mm 3 m/s 756 mmHg 89%
    10:00 -1°C° 0 mm 2 m/s 756 mmHg 87%
    11:00 +1°C° 0 mm 2 m/s 756 mmHg 85%
    12:00 +1°C° 0 mm 2 m/s 756 mmHg 83%
    13:00 +1°C° 0 mm 2 m/s 756 mmHg 81%
    14:00 +2°C° 0 mm 1 m/s 756 mmHg 79%
    15:00 +2°C° 0 mm 1 m/s 756 mmHg 81%
    16:00 +2°C° 0 mm 1 m/s 756 mmHg 84%
    17:00 +1°C° 0 mm 1 m/s 756 mmHg 87%
    18:00 +1°C° 0 mm 1 m/s 756 mmHg 88%
    19:00 +1°C° 0 mm 1 m/s 756 mmHg 90%
    20:00 +1°C° 0 mm 1 m/s 756 mmHg 92%
    21:00 +1°C° 0 mm 1 m/s 756 mmHg 92%
    22:00 +1°C° 0 mm 1 m/s 755 mmHg 92%
    23:00 +1°C° 0 mm 1 m/s 755 mmHg 92%

    23 Février, Dimanche

    Heure Température Précipitation Vent Pression Humidité
    00:00 -1°C° 0 mm 2 m/s 755 mmHg 92%
    01:00 -1°C° 0 mm 2 m/s 754 mmHg 92%
    02:00 -2°C° 0 mm 2 m/s 754 mmHg 91%
    03:00 -2°C° 0 mm 3 m/s 753 mmHg 90%
    04:00 -2°C° 0 mm 3 m/s 752 mmHg 89%
    05:00 -3°C° 0 mm 4 m/s 752 mmHg 88%
    06:00 -3°C° 0 mm 4 m/s 751 mmHg 86%
    07:00 -4°C° 0 mm 5 m/s 750 mmHg 85%
    08:00 -3°C° 0 mm 6 m/s 750 mmHg 83%
    09:00 -3°C° 0 mm 7 m/s 749 mmHg 81%
    10:00 -2°C° 0 mm 7 m/s 748 mmHg 79%
    11:00 -1°C° 0 mm 8 m/s 747 mmHg 78%
    12:00 -1°C° 0.2 mm 8 m/s 746 mmHg 82%
    13:00 -1°C° 0.2 mm 9 m/s 745 mmHg 86%
    14:00 -3°C° 0.2 mm 9 m/s 744 mmHg 90%
    15:00 -3°C° 0.9 mm 9 m/s 743 mmHg 92%
    16:00 -3°C° 0.9 mm 9 m/s 742 mmHg 94%
    17:00 -3°C° 0.9 mm 9 m/s 741 mmHg 96%
    18:00 -2°C° 1.2 mm 8 m/s 741 mmHg 97%
    19:00 -2°C° 1.2 mm 7 m/s 740 mmHg 97%
    20:00 -2°C° 1.2 mm 7 m/s 740 mmHg 97%
    21:00 -2°C° 0.6 mm 6 m/s 740 mmHg 96%
    22:00 -1°C° 0.6 mm 5 m/s 740 mmHg 95%
    23:00 -1°C° 0.6 mm 5 m/s 740 mmHg 93%

    24 Février, Lundi

    Heure Température Précipitation Vent Pression Humidité
    00:00 -1°C° 0 mm 5 m/s 740 mmHg 93%
    01:00 -2°C° 0 mm 5 m/s 741 mmHg 92%
    02:00 -2°C° 0 mm 5 m/s 741 mmHg 91%
    03:00 -2°C° 0 mm 4 m/s 741 mmHg 91%
    04:00 -3°C° 0 mm 4 m/s 741 mmHg 92%
    05:00 -3°C° 0 mm 4 m/s 741 mmHg 92%
    06:00 -3°C° 0 mm 4 m/s 741 mmHg 91%
    07:00 -3°C° 0 mm 4 m/s 740 mmHg 91%
    08:00 -2°C° 0 mm 4 m/s 740 mmHg 90%
    09:00 -2°C° 0 mm 4 m/s 739 mmHg 88%
    10:00 -1°C° 0 mm 4 m/s 739 mmHg 85%
    11:00 0°C° 0 mm 4 m/s 739 mmHg 83%
    12:00 0°C° 0.2 mm 4 m/s 738 mmHg 86%
    13:00 0°C° 0.2 mm 4 m/s 736 mmHg 89%
    14:00 -1°C° 0.2 mm 5 m/s 735 mmHg 92%
    15:00 -2°C° 1.4 mm 6 m/s 734 mmHg 94%
    16:00 -2°C° 1.4 mm 6 m/s 733 mmHg 96%
    17:00 -3°C° 1.4 mm 7 m/s 732 mmHg 98%
    18:00 -4°C° 1.5 mm 8 m/s 732 mmHg 97%
    19:00 -4°C° 1.5 mm 8 m/s 732 mmHg 97%
    20:00 -4°C° 1.5 mm 9 m/s 731 mmHg 97%
    21:00 -4°C° 1 mm 9 m/s 732 mmHg 96%
    22:00 -4°C° 1 mm 10 m/s 732 mmHg 95%
    23:00 -4°C° 1 mm 11 m/s 732 mmHg 95%
    Voir plus